When you browse on this site, cookies collect data to enhance your experience and personalize the content and advertising you see.
Visit our Privacy Policy to learn more. By continuing to use the site, you agree to this use of cookies and data.
  • In Latvia
  • List of Countries
  • For 7 days
  • Water Temperature
  • Satellite Maps
  • Weather Map
  • Weather Widgets
  • user-avatar
    Login

    Hourly Weather Ventspils

    Today, 20 July, Saturday

    Time Temperature Precipitation Wind Pressure Humidity
    00:00 +14°C° 0 mm 1 mps 760 mmHg 90%
    01:00 +13°C° 0 mm 1 mps 761 mmHg 90%
    02:00 +14°C° 0 mm 1 mps 761 mmHg 89%
    03:00 +14°C° 0 mm 1 mps 761 mmHg 88%
    04:00 +14°C° 0 mm 2 mps 761 mmHg 87%
    05:00 +16°C° 0 mm 1 mps 761 mmHg 80%
    06:00 +19°C° 0 mm 1 mps 761 mmHg 72%
    07:00 +21°C° 0 mm 1 mps 761 mmHg 65%
    08:00 +22°C° 0 mm 1 mps 762 mmHg 59%
    09:00 +23°C° 0 mm 1 mps 762 mmHg 53%
    10:00 +24°C° 0 mm 2 mps 762 mmHg 48%
    11:00 +24°C° 0 mm 2 mps 762 mmHg 48%
    12:00 +24°C° 0 mm 2 mps 762 mmHg 48%
    13:00 +24°C° 0 mm 2 mps 762 mmHg 48%
    14:00 +24°C° 0 mm 2 mps 762 mmHg 50%
    15:00 +23°C° 0 mm 2 mps 762 mmHg 52%
    16:00 +23°C° 0 mm 2 mps 762 mmHg 54%
    17:00 +21°C° 0 mm 2 mps 762 mmHg 61%
    18:00 +20°C° 0 mm 2 mps 762 mmHg 67%
    19:00 +19°C° 0 mm 2 mps 762 mmHg 73%
    20:00 +17°C° 0 mm 2 mps 762 mmHg 74%
    21:00 +16°C° 0 mm 2 mps 762 mmHg 75%
    22:00 +15°C° 0 mm 2 mps 762 mmHg 77%
    23:00 +14°C° 0 mm 3 mps 762 mmHg 77%

    Tomorrow, 21 July, Sunday

    Time Temperature Precipitation Wind Pressure Humidity
    00:00 +14°C° 0 mm 3 mps 762 mmHg 77%
    01:00 +14°C° 0 mm 3 mps 762 mmHg 76%
    02:00 +13°C° 0 mm 3 mps 762 mmHg 77%
    03:00 +13°C° 0 mm 4 mps 762 mmHg 77%
    04:00 +13°C° 0 mm 4 mps 762 mmHg 78%
    05:00 +15°C° 0 mm 4 mps 762 mmHg 72%
    06:00 +18°C° 0 mm 4 mps 762 mmHg 66%
    07:00 +20°C° 0 mm 4 mps 761 mmHg 61%
    08:00 +22°C° 0 mm 3 mps 761 mmHg 55%
    09:00 +24°C° 0 mm 3 mps 761 mmHg 50%
    10:00 +26°C° 0 mm 3 mps 761 mmHg 45%
    11:00 +26°C° 0 mm 3 mps 761 mmHg 44%
    12:00 +27°C° 0 mm 3 mps 761 mmHg 43%
    13:00 +27°C° 0 mm 2 mps 761 mmHg 42%
    14:00 +27°C° 0 mm 2 mps 761 mmHg 44%
    15:00 +27°C° 0 mm 2 mps 760 mmHg 47%
    16:00 +27°C° 0 mm 2 mps 760 mmHg 49%
    17:00 +25°C° 0.2 mm 2 mps 760 mmHg 60%
    18:00 +23°C° 0.2 mm 2 mps 760 mmHg 71%
    19:00 +22°C° 0.2 mm 1 mps 760 mmHg 82%
    20:00 +20°C° 0.5 mm 2 mps 759 mmHg 85%
    21:00 +19°C° 0.5 mm 2 mps 759 mmHg 88%
    22:00 +19°C° 0.5 mm 2 mps 759 mmHg 91%
    23:00 +18°C° 0.6 mm 3 mps 759 mmHg 92%

    Day after tomorrow, 22 July, Monday

    Time Temperature Precipitation Wind Pressure Humidity
    00:00 +18°C° 0.6 mm 3 mps 759 mmHg 93%
    01:00 +18°C° 0.6 mm 3 mps 759 mmHg 94%
    02:00 +17°C° 0.8 mm 3 mps 759 mmHg 95%
    03:00 +17°C° 0.8 mm 3 mps 759 mmHg 96%
    04:00 +17°C° 0.8 mm 3 mps 759 mmHg 97%
    05:00 +18°C° 0.8 mm 3 mps 759 mmHg 96%
    06:00 +18°C° 0.8 mm 3 mps 759 mmHg 95%
    07:00 +19°C° 0.8 mm 3 mps 759 mmHg 93%
    08:00 +20°C° 0.8 mm 3 mps 759 mmHg 90%
    09:00 +21°C° 0.8 mm 3 mps 760 mmHg 88%
    10:00 +21°C° 0.8 mm 3 mps 760 mmHg 85%
    11:00 +21°C° 0.8 mm 3 mps 760 mmHg 86%
    12:00 +21°C° 0.8 mm 3 mps 760 mmHg 87%
    13:00 +21°C° 0.8 mm 2 mps 761 mmHg 88%
    14:00 +20°C° 0.2 mm 3 mps 761 mmHg 88%
    15:00 +20°C° 0.2 mm 3 mps 761 mmHg 88%
    16:00 +20°C° 0.2 mm 3 mps 761 mmHg 88%
    17:00 +19°C° 0.1 mm 3 mps 761 mmHg 89%
    18:00 +19°C° 0.1 mm 3 mps 761 mmHg 90%
    19:00 +18°C° 0.1 mm 2 mps 761 mmHg 92%
    20:00 +18°C° 0 mm 2 mps 761 mmHg 93%
    21:00 +17°C° 0 mm 2 mps 761 mmHg 95%
    22:00 +16°C° 0 mm 2 mps 761 mmHg 97%
    23:00 +16°C° 0 mm 2 mps 761 mmHg 97%

    23 July, Tuesday

    Time Temperature Precipitation Wind Pressure Humidity
    00:00 +16°C° 0 mm 2 mps 761 mmHg 96%
    01:00 +16°C° 0 mm 2 mps 761 mmHg 96%
    02:00 +16°C° 0 mm 2 mps 761 mmHg 96%
    03:00 +16°C° 0 mm 2 mps 761 mmHg 96%
    04:00 +16°C° 0 mm 2 mps 761 mmHg 96%
    05:00 +17°C° 0 mm 2 mps 761 mmHg 92%
    06:00 +18°C° 0 mm 2 mps 761 mmHg 89%
    07:00 +20°C° 0 mm 2 mps 761 mmHg 85%
    08:00 +20°C° 0 mm 2 mps 761 mmHg 79%
    09:00 +21°C° 0 mm 3 mps 761 mmHg 73%
    10:00 +22°C° 0 mm 3 mps 761 mmHg 67%
    11:00 +22°C° 0 mm 3 mps 761 mmHg 67%
    12:00 +22°C° 0 mm 4 mps 761 mmHg 68%
    13:00 +22°C° 0 mm 4 mps 761 mmHg 68%
    14:00 +22°C° 0 mm 4 mps 761 mmHg 69%
    15:00 +21°C° 0 mm 4 mps 761 mmHg 70%
    16:00 +21°C° 0 mm 3 mps 761 mmHg 72%
    17:00 +20°C° 0 mm 3 mps 761 mmHg 77%
    18:00 +19°C° 0 mm 2 mps 760 mmHg 83%
    19:00 +18°C° 0 mm 2 mps 760 mmHg 89%
    20:00 +17°C° 0 mm 2 mps 760 mmHg 92%
    21:00 +18°C° 0 mm 1 mps 760 mmHg 95%
    22:00 +16°C° 0 mm 1 mps 761 mmHg 97%
    23:00 +16°C° 0 mm 1 mps 761 mmHg 97%

    24 July, Wednesday

    Time Temperature Precipitation Wind Pressure Humidity
    00:00 +16°C° 0 mm 1 mps 761 mmHg 97%
    01:00 +16°C° 0 mm 1 mps 761 mmHg 97%
    02:00 +16°C° 0 mm 1 mps 761 mmHg 98%
    03:00 +16°C° 0 mm 1 mps 760 mmHg 98%
    04:00 +16°C° 0 mm 1 mps 760 mmHg 98%
    05:00 +18°C° 0 mm 1 mps 761 mmHg 93%
    06:00 +19°C° 0 mm 1 mps 761 mmHg 87%
    07:00 +20°C° 0 mm 2 mps 761 mmHg 82%
    08:00 +20°C° 0 mm 2 mps 761 mmHg 78%
    09:00 +21°C° 0 mm 2 mps 761 mmHg 74%
    10:00 +23°C° 0 mm 2 mps 762 mmHg 70%
    11:00 +23°C° 0 mm 2 mps 762 mmHg 68%
    12:00 +24°C° 0 mm 2 mps 762 mmHg 65%
    13:00 +24°C° 0 mm 2 mps 762 mmHg 63%
    14:00 +24°C° 0 mm 2 mps 762 mmHg 64%
    15:00 +24°C° 0 mm 2 mps 762 mmHg 65%
    16:00 +23°C° 0 mm 2 mps 762 mmHg 67%
    17:00 +21°C° 0 mm 2 mps 761 mmHg 73%
    18:00 +20°C° 0 mm 2 mps 761 mmHg 79%
    19:00 +19°C° 0 mm 2 mps 761 mmHg 86%
    20:00 +18°C° 0 mm 2 mps 761 mmHg 88%
    21:00 +18°C° 0 mm 2 mps 761 mmHg 89%
    22:00 +17°C° 0 mm 2 mps 762 mmHg 91%
    23:00 +17°C° 0 mm 2 mps 762 mmHg 92%

    25 July, Thursday

    Time Temperature Precipitation Wind Pressure Humidity
    00:00 +17°C° 0 mm 2 mps 762 mmHg 92%
    01:00 +17°C° 0 mm 2 mps 762 mmHg 92%
    02:00 +18°C° 0 mm 1 mps 762 mmHg 93%
    03:00 +16°C° 0 mm 1 mps 762 mmHg 94%
    04:00 +16°C° 0 mm 1 mps 762 mmHg 95%
    05:00 +19°C° 0 mm 1 mps 762 mmHg 90%
    06:00 +20°C° 0 mm 1 mps 762 mmHg 85%
    07:00 +22°C° 0 mm 1 mps 763 mmHg 79%
    08:00 +21°C° 0 mm 2 mps 763 mmHg 75%
    09:00 +22°C° 0 mm 3 mps 763 mmHg 71%
    10:00 +22°C° 0 mm 4 mps 764 mmHg 66%
    11:00 +23°C° 0 mm 4 mps 764 mmHg 61%
    12:00 +23°C° 0 mm 4 mps 764 mmHg 55%
    13:00 +23°C° 0 mm 4 mps 764 mmHg 50%
    14:00 +22°C° 0 mm 4 mps 764 mmHg 51%
    15:00 +22°C° 0 mm 4 mps 765 mmHg 52%
    16:00 +21°C° 0 mm 4 mps 765 mmHg 52%
    17:00 +20°C° 0 mm 3 mps 765 mmHg 60%
    18:00 +19°C° 0 mm 3 mps 765 mmHg 67%
    19:00 +18°C° 0 mm 2 mps 765 mmHg 74%
    20:00 +18°C° 0 mm 2 mps 765 mmHg 73%
    21:00 +18°C° 0 mm 1 mps 765 mmHg 72%
    22:00 +16°C° 0 mm 0 mps 765 mmHg 71%
    23:00 +18°C° 0 mm 1 mps 765 mmHg 70%
    Show more